Date String (YYYY-MM-DD hh:mm:ss) UTC,Instrument flags,absolute air pressure of the measurement (hPa),sample flow rate (lpm),inlet stack bypass flow (lpm),air temperature of the measurement (°C),ambient temperature measured by the external sensor (°C),aerosol sample conditioner tube jacket temperature (°C),OPC LED temperature (°C),internal box temperature (°C),relative humidity of the measurement (%),span deviation,mass concentration of particles derived from Lorenz-Mie calculation of OPC scattering (μg/m³),mass concentration of particles derived from Lorenz-Mie calculation of OPC scattering (μg/m³),mass concentration of particles derived from Lorenz-Mie calculation of OPC scattering (μg/m³)
DateTimeUTC,F1_M11,P_M11,Q1_M11,Q2_M11,T1_M11,T2_M11,T3_M11,T4_M11,T5_M11,U1_M11,ZSPAN_M11,X0_M11,X2_M11,X1_M11
2024-05-30 02:00:00,SystemResetWarning,0826.1,5.00,000.00,029.5,027.5,000.0,038.1,030.8,015.9,0000.0,0008.67,0002.84,0001.84
2024-05-30 02:01:00,SystemResetWarning,0826.2,5.00,000.00,029.5,027.8,000.0,038.1,031.0,016.0,0000.0,0008.84,0002.85,0001.83
2024-05-30 02:02:00,SystemResetWarning,0826.2,5.00,000.00,029.6,028.2,000.0,038.0,031.2,015.9,0000.0,0008.54,0002.90,0001.83
2024-05-30 02:03:00,SystemResetWarning,0826.2,5.00,000.00,029.6,028.4,000.0,038.0,031.3,015.8,0000.0,0008.63,0002.99,0001.84
2024-05-30 02:04:00,SystemResetWarning,0826.2,5.00,000.00,029.7,028.6,000.0,038.0,031.4,015.8,0000.0,0007.92,0002.98,0001.86
2024-05-30 02:05:00,SystemResetWarning,0826.2,5.00,000.00,029.7,028.8,000.0,038.0,031.5,016.0,0000.0,0008.27,0003.04,0001.88
2024-05-30 02:06:00,SystemResetWarning,0826.2,5.00,000.00,029.8,029.0,000.0,038.0,031.5,016.4,0000.0,0008.94,0003.08,0001.89
2024-05-30 02:07:00,SystemResetWarning,0826.1,5.00,000.00,029.8,029.1,000.0,038.1,031.6,016.6,0000.0,0009.21,0003.10,0001.90
2024-05-30 02:08:00,SystemResetWarning,0826.2,5.00,000.00,029.9,029.2,000.0,038.1,031.7,016.7,0000.0,0009.69,0003.15,0001.91
2024-05-30 02:09:00,SystemResetWarning,0826.2,5.00,000.00,029.9,029.3,000.0,038.1,031.7,016.7,0000.0,0011.37,0003.16,0001.92
2024-05-30 02:10:00,SystemResetWarning,0826.1,5.00,000.00,030.0,029.4,000.0,038.1,031.8,016.7,0000.0,0013.20,0003.20,0001.95
2024-05-30 02:11:00,SystemResetWarning,0826.1,5.00,000.00,030.1,029.5,000.0,038.2,031.9,016.7,0000.0,0013.94,0003.25,0001.97
2024-05-30 02:12:00,SystemResetWarning,0826.0,5.01,000.00,030.1,029.6,000.0,038.2,031.9,016.7,0000.0,0014.67,0003.30,0001.99
2024-05-30 02:13:00,SystemResetWarning,0826.1,4.99,000.00,030.2,029.6,000.0,038.2,031.9,016.1,0000.0,0015.49,0003.33,0001.98
2024-05-30 02:14:00,SystemResetWarning,0826.1,4.98,000.00,030.2,029.7,000.0,038.3,032.0,016.4,0000.0,0015.74,0003.33,0001.99
2024-05-30 02:15:00,SystemResetWarning,0826.1,5.00,000.00,030.2,029.7,000.0,038.3,032.0,016.2,0000.0,0016.16,0003.39,0001.99
2024-05-30 02:16:00,SystemResetWarning,0826.1,5.01,000.00,030.3,029.8,000.0,038.4,032.1,016.2,0000.0,0016.04,0003.46,0002.00
2024-05-30 02:17:00,SystemResetWarning,0826.2,5.00,000.00,030.3,029.8,000.0,038.4,032.1,016.0,0000.0,0015.56,0003.46,0001.99
2024-05-30 02:18:00,SystemResetWarning,0826.2,4.98,000.00,030.4,029.9,000.0,038.4,032.1,015.8,0000.0,0015.34,0003.45,0001.97
2024-05-30 02:19:00,SystemResetWarning,0826.2,5.00,000.00,030.3,028.5,000.0,038.5,031.4,015.8,0000.0,0015.13,0003.41,0001.96
2024-05-30 02:20:00,SystemResetWarning,0826.2,5.01,000.00,029.8,026.5,000.0,038.5,030.5,015.3,0000.0,0013.56,0003.39,0001.96
2024-05-30 02:21:00,SystemResetWarning,0826.2,5.01,000.00,029.6,026.5,000.0,038.5,030.3,015.2,0000.0,0011.59,0003.38,0001.95
2024-05-30 02:22:00,SystemResetWarning,0826.2,5.01,000.00,029.5,026.9,000.0,038.3,030.5,015.7,0000.0,0010.33,0003.35,0001.94
2024-05-30 02:23:00,SystemResetWarning,0826.2,4.99,000.00,029.5,027.4,000.0,038.2,030.8,015.9,0000.0,0009.49,0003.33,0001.94
2024-05-30 02:24:00,SystemResetWarning,0826.2,5.00,000.00,029.6,027.7,000.0,038.2,031.0,016.1,0000.0,0009.06,0003.29,0001.95
2024-05-30 02:25:00,SystemResetWarning,0826.2,5.00,000.00,029.6,028.1,000.0,038.1,031.1,016.4,0000.0,0008.83,0003.25,0001.94
2024-05-30 02:26:00,SystemResetWarning,0826.1,5.01,000.00,029.6,028.3,000.0,038.1,031.3,016.5,0000.0,0008.54,0003.22,0001.93
2024-05-30 02:27:00,SystemResetWarning,0826.2,4.99,000.00,029.7,028.5,000.0,038.1,031.4,016.7,0000.0,0008.44,0003.17,0001.92
2024-05-30 02:28:00,SystemResetWarning,0826.1,5.00,000.00,029.7,028.7,000.0,038.1,031.4,016.8,0000.0,0008.57,0003.14,0001.94
2024-05-30 02:29:00,SystemResetWarning,0826.1,4.99,000.00,029.8,028.9,000.0,038.1,031.5,016.7,0000.0,0009.18,0003.17,0001.96
2024-05-30 02:30:00,SystemResetWarning,0826.1,5.00,000.00,029.8,029.0,000.0,038.1,031.6,016.8,0000.0,0009.86,0003.20,0001.97
2024-05-30 02:31:00,SystemResetWarning,0826.1,5.01,000.00,029.9,029.1,000.0,038.1,031.7,016.8,0000.0,0010.63,0003.18,0001.97
2024-05-30 02:32:00,SystemResetWarning,0826.1,5.00,000.00,029.9,029.2,000.0,038.2,031.7,016.7,0000.0,0011.08,0003.16,0001.97
2024-05-30 02:33:00,SystemResetWarning,0826.2,5.00,000.00,030.0,029.3,000.0,038.2,031.8,016.5,0000.0,0011.50,0003.17,0001.96
2024-05-30 02:34:00,SystemResetWarning,0826.2,5.00,000.00,030.0,029.4,000.0,038.2,031.8,016.3,0000.0,0011.59,0003.17,0001.96
2024-05-30 02:35:00,SystemResetWarning,0826.2,4.99,000.00,030.1,029.5,000.0,038.2,031.9,016.6,0000.0,0011.41,0003.18,0001.95
2024-05-30 02:36:00,SystemResetWarning,0826.2,5.00,000.00,030.1,029.5,000.0,038.3,031.9,016.5,0000.0,0011.33,0003.21,0001.97
2024-05-30 02:37:00,SystemResetWarning,0826.2,5.00,000.00,030.1,029.6,000.0,038.3,031.9,016.4,0000.0,0011.20,0003.20,0001.98
2024-05-30 02:38:00,SystemResetWarning,0826.2,5.00,000.00,030.2,029.6,000.0,038.3,032.0,016.5,0000.0,0010.99,0003.18,0001.97
2024-05-30 02:39:00,SystemResetWarning,0826.2,5.00,000.00,030.2,029.7,000.0,038.4,032.0,016.5,0000.0,0010.62,0003.19,0001.96
2024-05-30 02:40:00,SystemResetWarning,0826.2,5.00,000.00,030.3,029.7,000.0,038.4,032.0,016.4,0000.0,0010.81,0003.23,0001.96
2024-05-30 02:41:00,SystemResetWarning,0826.2,5.00,000.00,030.3,029.7,000.0,038.4,032.1,016.5,0000.0,0010.01,0003.26,0001.95
2024-05-30 02:42:00,SystemResetWarning,0826.2,5.00,000.00,030.3,029.8,000.0,038.4,032.1,016.4,0000.0,0009.48,0003.27,0001.96
2024-05-30 02:43:00,SystemResetWarning,0826.2,5.00,000.00,030.4,029.8,000.0,038.5,032.1,016.2,0000.0,0009.70,0003.26,0001.96
2024-05-30 02:44:00,SystemResetWarning,0826.2,5.00,000.00,030.4,029.8,000.0,038.5,032.2,016.2,0000.0,0011.21,0003.27,0001.98
2024-05-30 02:45:00,SystemResetWarning,0826.2,5.00,000.00,030.4,029.9,000.0,038.6,032.2,016.1,0000.0,0011.05,0003.29,0001.99
2024-05-30 02:46:00,SystemResetWarning,0826.2,5.00,000.00,030.5,029.9,000.0,038.6,032.2,016.0,0000.0,0010.96,0003.35,0002.00
2024-05-30 02:47:00,SystemResetWarning,0826.2,5.00,000.00,030.5,029.9,000.0,038.6,032.3,015.8,0000.0,0010.95,0003.34,0001.99
2024-05-30 02:48:00,SystemResetWarning,0826.2,5.00,000.00,030.5,030.0,000.0,038.6,032.3,015.5,0000.0,0011.51,0003.36,0001.97
2024-05-30 02:49:00,SystemResetWarning,0826.2,5.00,000.00,030.6,030.0,000.0,038.7,032.3,015.4,0000.0,0011.79,0003.38,0001.97
2024-05-30 02:50:00,SystemResetWarning,0826.3,5.00,000.00,030.6,030.0,000.0,038.7,032.3,015.6,0000.0,0011.89,0003.36,0001.97
2024-05-30 02:51:00,SystemResetWarning,0826.3,4.99,000.00,030.6,029.7,000.0,038.8,032.2,015.6,0000.0,0011.99,0003.34,0001.96
2024-05-30 02:52:00,SystemResetWarning,0826.2,4.99,000.00,030.3,027.2,000.0,038.8,031.0,015.8,0000.0,0012.53,0003.32,0001.96
2024-05-30 02:53:00,SystemResetWarning,0826.2,5.02,000.00,029.9,026.3,000.0,038.8,030.5,016.3,0000.0,0013.26,0003.36,0001.97
2024-05-30 02:54:00,SystemResetWarning,0826.2,4.99,000.00,029.7,026.6,000.0,038.7,030.5,016.5,0000.0,0013.84,0003.41,0001.96
2024-05-30 02:55:00,SystemResetWarning,0826.2,5.00,000.00,029.6,027.1,000.0,038.5,030.8,016.7,0000.0,0013.83,0003.43,0001.95
2024-05-30 02:56:00,SystemResetWarning,0826.4,5.01,000.00,029.7,027.5,000.0,038.4,031.0,016.5,0000.0,0014.41,0003.41,0001.94
2024-05-30 02:57:00,SystemResetWarning,0826.4,5.00,000.00,029.7,027.8,000.0,038.4,031.2,016.2,0000.0,0014.86,0003.36,0001.93
2024-05-30 02:58:00,SystemResetWarning,0826.5,5.00,000.00,029.7,028.1,000.0,038.3,031.3,016.1,0000.0,0015.20,0003.33,0001.92
2024-05-30 02:59:00,SystemResetWarning,0826.6,5.00,000.00,029.7,028.4,000.0,038.3,031.4,015.9,0000.0,0015.09,0003.32,0001.92
